Location: Tel Aviv
(32.0670°N, 34.7670°E)
Time: 18:41:01
(UTC+03:00)

Vanguard 2 Rocket - Pass Details

Date: 29 January 2022
Orbit: 553 x 3323 km, 32.9° (Epoch: 24 May)

Event Time Altitude Azimuth Distance (km) Brightness Sun altitude
Exits shadow 05:51:45 11° 284° (WNW) 5,878 10.3 -9.9°
Maximum altitude 06:10:51 64° 209° (SSW) 3,529 9.8 -6.0°
Drops below altitude 10° 06:28:28 10° 133° (SE) 5,444 12.2 -2.5°
Sets 06:32:08 0° 130° (SE) 6,169 12.8 -1.7°
